Regional Weather Roundup
Issued by NWS

Home | Current Version | Previous Version | Graphics & Text | Print | Product List | Glossary On
Versions: 1 2 3 4 5 6 7 8 9 10 11 12 13 14 15 16 17 18 19 20 21 22 23 24 25 26 27 28 29 30 31 32 33 34 35 36 37 38 39 40 41 42 43 44 45 46 47 48 49 50
000
ASUS43 KOAX 272302
RWRNE

WEATHER ROUNDUP FOR NEBRASKA
NATIONAL WEATHER SERVICE OMAHA NE
500 PM CST SAT DEC 27 2014

NOTES: SATELLITE DATA IS BEING USED TO AUGMENT CLOUD COVER ABOVE
       12000 FEET.
       "FAIR" INDICATES FEW OR NO CLOUDS BELOW 12,000 FEET WITH NO
       SIGNIFICANT WEATHER AND/OR OBSTRUCTIONS TO VISIBILITY.

  * THESE STATIONS DO NOT REPORT WEATHER SUCH AS RAIN...SNOW OR FOG.

NEZ001>004-019>022-054>056-280000-
NEBRASKA PANHANDLE

CITY           SKY/WX    TMP DP  RH WIND       PRES   REMARKS
SCOTTSBLUFF    CLEAR     20  10  65 W9        30.08S WCI   9
ALLIANCE       CLEAR     16   7  67 W10       30.06R WCI   4
CHADRON        CLEAR     15   7  70 SW7       30.07R WCI   5
SIDNEY         CLEAR     11   4  73 SW7       30.09S WCI   0
$$

NEZ057>060-069>072-079>082-280000-
SOUTHWEST NEBRASKA

CITY           SKY/WX    TMP DP  RH WIND       PRES   REMARKS
NORTH PLATTE   CLEAR     21  12  68 SW5       30.15F WCI  15
IMPERIAL       CLEAR     25  12  58 W3        30.15F
LEXINGTON      CLEAR     23  16  74 SW6       30.19R WCI  16
MCCOOK         CLEAR     23  13  65 W7        30.20S WCI  15
$$

NEZ005>010-023>029-035>040-094-280000-
NORTH CENTRAL NEBRASKA

CITY           SKY/WX    TMP DP  RH WIND       PRES   REMARKS
VALENTINE      CLEAR     19  12  74 SW8       30.09S WCI   9
AINSWORTH      CLEAR     20  13  75 SW3       30.10F
BROKEN BOW     CLEAR     21  14  74 W5        30.15R WCI  15
ORD            CLEAR     22  14  71 CALM      30.16F
$$

NEZ041-046>049-061>064-073>077-083>087-280000-
SOUTH CENTRAL NEBRASKA

CITY           SKY/WX    TMP DP  RH WIND       PRES   REMARKS
GRAND ISLAND     N/A     21  13  71 W6        30.22S WCI  13
AURORA         CLEAR     22  15  75 SW5       30.22R WCI  16
HASTINGS       CLEAR     24  15  68 W5        30.21R WCI  18
HEBRON         CLEAR     26  16  64 CALM      30.25S
KEARNEY *      CLEAR     23  14  68 SW5       30.20S WCI  17
$$

NEZ011>018-030>034-042>045-280000-
NORTHEAST NEBRASKA

CITY           SKY/WX    TMP DP  RH WIND       PRES   REMARKS
NORFOLK        CLEAR     16  11  80 SW8       30.19R WCI   5
ALBION         CLEAR     22  13  69 SW3       30.19R
BLAIR          CLEAR     23  16  73 W6        30.22S WCI  16
COLUMBUS *     CLEAR     23  10  58 W7        30.23S WCI  15
TEKAMAH        CLEAR     20  14  77 W6        30.25R WCI  12
$$

NEZ050>053-065>068-078-088>093-280000-
SOUTHEAST NEBRASKA

CITY           SKY/WX    TMP DP  RH WIND       PRES   REMARKS
LINCOLN        CLEAR     26  16  65 W7        30.26S WCI  18
OMAHA EPPLEY   PTCLDY    24  16  71 W7        30.25S WCI  16
BEATRICE       CLEAR     26  18  72 NW6       30.25S WCI  19
FALLS CITY     CLEAR     28  19  69 NW8       30.25S WCI  20
NEBRASKA CITY  CLEAR     26  16  66 NW5       30.25R WCI  20
$$

NEZ044-045-051>053-067-280000-
OMAHA AREA

CITY           SKY/WX    TMP DP  RH WIND       PRES   REMARKS
OMAHA EPPLEY   PTCLDY    24  16  71 W7        30.25S WCI  16
BLAIR          CLEAR     23  16  73 W6        30.22S WCI  16
OFFUTT AFB     CLEAR     25  15  66 W6        30.24S WCI  18
WAHOO          FAIR      24  15  70 W6        30.24S WCI  17
$$


USA.gov is the U.S. government's official web portal to all federal, state and local government web resources and services.